STARLINK-4494 (53558 NORAD) Tracking and Keplerian Element Data

This shows tracking and keplerian element data for the satellite.

Feedback or suggestion? Click here.




ElementValue
Catalog53558
NameSTARLINK-4494
Epoch Orbit1512
Epoch Day324.68542295
Epoch Year2022
RAAN68.3559
Inclination53.217
Eccentricity0.0001552
Argument of Perigee68.4192
Mean Anonmoly291.6965
Mean Motion15.08836929
Decay Rate4.78E-06
L11 53558U 22101AH 22324.68542295 .00000478 00000+0 48132-4 0 9996
L22 53558 53.2170 68.3559 0001552 68.4192 291.6965 15.08836929 15123



Live tracking and technical data element details for STARLINK-4494 (NORAD 53558). STARLINK-4494 can be tracked NOW for your location showing map with azimuth and elevation plus other details from your city location.







IsCatalogInMostPopularTable: catalog: 53558, numindb: 4
Update: records affected: 1



GetName: 53558 STARLINK-4494

Hit Count: updated at: Thu, 08 Dec 2022 20:50:51 GMT